Location: Bannatyne
(13.0833°N, 59.5333°W)
Time: 20:03:29
(UTC+00:00)

deb Explorer IX - Pass Details

Date: 01 February 2020
Orbit: 549 x 1099 km, 38.8° (Epoch: 19 February)

Event Time Altitude Azimuth Distance (km) Brightness Sun altitude
Rises 21:48:51 0° 271° (W) 3,105 ? 1.5°
Reaches altitude 10° 21:51:48 10° 289° (WNW) 2,289 ? 0.8°
Maximum altitude 21:55:36 19° 334° (NNW) 1,870 ? -0.1°
Drops below altitude 10° 21:59:47 10° 17° (NNE) 2,562 ? -1.0°
Sets 22:03:22 0° 35° (NE) 3,617 ? -1.9°
